Date String (YYYY-MM-DD hh:mm:ss) UTC,Instrument flags,Ambient pressure (hPa),Sample flow (lpm),Bypass flow (lpm),Sample temperature (°C),Ambient temperature (°C),ASC tube jacket temperature (°C),LED temperature (°C),Box temperature (°C),Sample RH (%),Span deviation,Mass concentration (μg/m³),Mass concentration (μg/m³),Mass concentration (μg/m³)
DateTimeUTC,F1_M11,P_M11,Q1_M11,Q2_M11,T1_M11,T2_M11,T3_M11,T4_M11,T5_M11,U1_M11,ZSPAN_M11,X0_M11,X2_M11,X1_M11
2022-09-25 18:00:00,,0835.6,5.01,0.00,30.4,27.7,00.0,39.2,32.1,15.8,0002.4,0011.04,0006.43,0005.90
2022-09-25 18:01:00,,0835.6,4.99,0.00,30.4,28.0,00.0,39.2,32.1,15.8,0002.6,0011.04,0006.41,0005.91
2022-09-25 18:02:00,,0835.6,5.00,0.00,30.4,28.3,00.0,39.2,32.1,15.9,0002.2,0011.05,0006.43,0005.93
2022-09-25 18:03:00,,0835.6,5.00,0.00,30.4,28.5,00.0,39.1,32.2,16.1,0001.1,0011.73,0006.47,0005.94
2022-09-25 18:04:00,,0835.6,4.99,0.00,30.4,28.7,00.0,39.1,32.2,16.2,0000.7,0011.88,0006.50,0005.95
2022-09-25 18:05:00,,0835.6,5.01,0.00,30.4,28.9,00.0,39.1,32.2,16.1,0000.7,0011.93,0006.56,0005.98
2022-09-25 18:06:00,,0835.6,5.01,0.00,30.4,29.0,00.0,39.1,32.3,15.8,0000.8,0012.05,0006.61,0006.01
2022-09-25 18:07:00,,0835.6,4.99,0.00,30.4,29.1,00.0,39.1,32.3,15.9,0001.4,0012.38,0006.67,0006.03
2022-09-25 18:08:00,,0835.5,4.99,0.00,30.5,29.2,00.0,39.2,32.3,15.9,0001.2,0012.93,0006.73,0006.05
2022-09-25 18:09:00,,0835.5,4.99,0.00,30.5,29.2,00.0,39.2,32.4,16.1,0001.3,0013.08,0006.69,0006.05
2022-09-25 18:10:00,,0835.5,5.01,0.00,30.5,29.3,00.0,39.2,32.4,16.1,0000.7,0013.04,0006.69,0006.04
2022-09-25 18:11:00,,0835.5,5.00,0.00,30.5,29.4,00.0,39.2,32.4,16.2,0000.7,0013.29,0006.68,0006.03
2022-09-25 18:12:00,,0835.5,5.00,0.00,30.6,29.4,00.0,39.2,32.5,15.8,0000.6,0013.18,0006.71,0006.03
2022-09-25 18:13:00,,0835.5,5.00,0.00,30.6,29.5,00.0,39.2,32.5,15.8,0000.9,0013.27,0006.75,0006.04
2022-09-25 18:14:00,,0835.6,5.00,0.00,30.6,29.5,00.0,39.2,32.5,15.6,0001.3,0012.80,0006.73,0006.02
2022-09-25 18:15:00,,0835.5,5.00,0.00,30.7,29.6,00.0,39.3,32.6,15.8,0001.8,0012.49,0006.72,0006.01
2022-09-25 18:16:00,,0835.6,5.02,0.00,30.7,29.5,00.0,39.3,32.6,15.8,0001.7,0012.73,0006.71,0006.00
2022-09-25 18:17:00,,0835.5,5.00,0.00,30.7,28.1,00.0,39.3,32.4,15.5,0001.5,0012.82,0006.70,0005.98
2022-09-25 18:18:00,,0835.5,5.00,0.00,30.6,26.9,00.0,39.2,32.3,15.7,0001.1,0012.40,0006.69,0005.99
2022-09-25 18:19:00,,0835.5,4.99,0.00,30.5,26.9,00.0,39.2,32.2,16.1,0000.9,0011.92,0006.66,0005.99
2022-09-25 18:20:00,,0835.4,5.01,0.00,30.4,27.1,00.0,39.1,32.0,16.1,0000.6,0011.52,0006.66,0005.99
2022-09-25 18:21:00,,0835.4,4.99,0.00,30.4,27.5,00.0,39.1,32.0,16.3,0001.1,0011.67,0006.73,0006.02
2022-09-25 18:22:00,,0835.4,5.00,0.00,30.3,27.8,00.0,39.1,32.0,16.0,0000.9,0011.57,0006.78,0006.05
2022-09-25 18:23:00,,0835.5,4.98,0.00,30.3,28.1,00.0,39.1,32.1,16.1,0000.5,0011.64,0006.83,0006.07
2022-09-25 18:24:00,,0835.4,5.00,0.00,30.3,28.4,00.0,39.1,32.1,15.9,0000.4,0011.65,0006.84,0006.08
2022-09-25 18:25:00,,0835.4,5.01,0.00,30.3,28.6,00.0,39.1,32.1,16.2,0000.2,0011.68,0006.84,0006.11
2022-09-25 18:26:00,,0835.5,5.00,0.00,30.3,28.7,00.0,39.1,32.1,16.1,-000.1,0011.65,0006.82,0006.13
2022-09-25 18:27:00,,0835.5,5.00,0.00,30.3,28.9,00.0,39.1,32.2,16.3,-000.4,0011.74,0006.84,0006.15
2022-09-25 18:28:00,,0835.4,5.01,0.00,30.4,29.0,00.0,39.1,32.2,15.9,-000.6,0010.97,0006.81,0006.15
2022-09-25 18:29:00,,0835.4,4.99,0.00,30.4,29.1,00.0,39.1,32.3,16.1,-000.7,0010.94,0006.78,0006.14
2022-09-25 18:30:00,,0835.4,5.00,0.00,30.4,29.2,00.0,39.1,32.3,15.8,-000.2,0011.03,0006.79,0006.14
2022-09-25 18:31:00,,0835.4,5.01,0.00,30.4,29.2,00.0,39.1,32.3,15.7,0000.2,0011.55,0006.79,0006.14
2022-09-25 18:32:00,,0835.4,4.99,0.00,30.4,29.3,00.0,39.1,32.4,15.9,0000.2,0011.98,0006.72,0006.13
2022-09-25 18:33:00,,0835.4,5.00,0.00,30.5,29.4,00.0,39.1,32.4,16.1,0000.8,0012.16,0006.70,0006.13
2022-09-25 18:34:00,,0835.4,5.01,0.00,30.5,29.4,00.0,39.1,32.4,16.1,0001.4,0012.38,0006.65,0006.11
2022-09-25 18:35:00,,0835.4,5.00,0.00,30.5,29.5,00.0,39.2,32.5,15.8,0001.5,0012.35,0006.62,0006.09
2022-09-25 18:36:00,,0835.4,4.99,0.00,30.6,29.6,00.0,39.2,32.5,15.8,0001.3,0012.50,0006.62,0006.07
2022-09-25 18:37:00,,0835.4,4.99,0.00,30.6,29.5,00.0,39.2,32.5,15.3,0000.7,0012.57,0006.63,0006.06
2022-09-25 18:38:00,,0835.4,5.00,0.00,30.6,28.5,00.0,39.2,32.5,15.6,0000.0,0012.14,0006.60,0006.04
2022-09-25 18:39:00,,0835.3,5.01,0.00,30.6,27.5,00.0,39.2,32.4,15.4,0000.0,0012.28,0006.64,0006.04
2022-09-25 18:40:00,,0835.4,5.00,0.00,30.5,27.6,00.0,39.1,32.3,15.5,0000.0,0012.31,0006.65,0006.04
2022-09-25 18:41:00,,0835.4,5.01,0.00,30.5,27.8,00.0,39.1,32.2,15.6,0000.0,0012.16,0006.61,0006.02
2022-09-25 18:42:00,,0835.4,4.99,0.00,30.4,28.1,00.0,39.1,32.2,15.6,0000.0,0011.64,0006.58,0006.00
2022-09-25 18:43:00,,0835.3,5.00,0.00,30.4,28.4,00.0,39.1,32.2,15.7,0000.1,0011.05,0006.61,0006.01
2022-09-25 18:44:00,,0835.4,5.00,0.00,30.4,28.6,00.0,39.1,32.2,16.2,0001.9,0010.74,0006.61,0006.01
2022-09-25 18:45:00,,0835.4,5.00,0.00,30.4,28.8,00.0,39.1,32.3,16.6,0001.4,0010.52,0006.67,0006.04
2022-09-25 18:46:00,,0835.4,4.99,0.00,30.4,29.0,00.0,39.1,32.3,16.1,0001.2,0010.49,0006.70,0006.08
2022-09-25 18:47:00,,0835.4,5.01,0.00,30.5,29.1,00.0,39.1,32.3,16.1,0001.2,0010.27,0006.72,0006.10
2022-09-25 18:48:00,,0835.4,5.00,0.00,30.5,29.2,00.0,39.1,32.4,15.9,0001.5,0010.52,0006.76,0006.13
2022-09-25 18:49:00,,0835.3,4.99,0.00,30.5,29.3,00.0,39.2,32.4,15.9,0002.0,0010.62,0006.80,0006.16
2022-09-25 18:50:00,,0835.3,5.00,0.00,30.5,29.4,00.0,39.2,32.4,16.1,0002.2,0010.48,0006.79,0006.18
2022-09-25 18:51:00,,0835.2,5.00,0.00,30.6,29.4,00.0,39.2,32.5,16.1,0002.2,0010.71,0006.80,0006.21
2022-09-25 18:52:00,,0835.2,5.00,0.00,30.6,29.5,00.0,39.2,32.5,16.3,0002.4,0011.00,0006.88,0006.24
2022-09-25 18:53:00,,0835.2,5.00,0.00,30.6,29.2,00.0,39.2,32.5,16.3,0001.5,0011.11,0006.94,0006.28
2022-09-25 18:54:00,,0835.3,5.00,0.00,30.6,27.7,00.0,39.2,32.3,16.3,0001.3,0011.14,0006.92,0006.28
2022-09-25 18:55:00,,0835.3,4.99,0.00,30.5,26.8,00.0,39.1,32.2,16.1,0000.8,0011.41,0006.94,0006.30
2022-09-25 18:56:00,,0835.2,5.02,0.00,30.4,26.8,00.0,39.1,32.0,16.2,0000.8,0011.68,0006.95,0006.31
2022-09-25 18:57:00,,0835.2,5.00,0.00,30.3,27.1,00.0,39.0,31.9,16.1,0001.1,0012.03,0006.99,0006.33
2022-09-25 18:58:00,,0835.2,5.00,0.00,30.3,27.5,00.0,39.0,31.9,16.6,0001.3,0012.10,0007.01,0006.34
2022-09-25 18:59:00,,0835.2,4.99,0.00,30.2,27.8,00.0,39.0,32.0,16.4,0001.0,0012.02,0006.98,0006.34
